Chicopee, MA

5:39 AM EDT on October 24, 2017 (GMT -0400)
Westover Air Reserve Base / Metropolitan Airport

Weather History for KCEF - January, 2012

Change the Weather History Date:

Monday, January 30, 2012

  Actual Average Record
Temperature  
Mean Temperature 29 °F -  
Max Temperature 35 °F 31 °F 55 °F (2013)
Min Temperature 23 °F 15 °F -2 °F (2000)
Degree Days  
Heating Degree Days 36    
Moisture  
Dew Point 20 °F    
Average Humidity 66    
Maximum Humidity 84    
Minimum Humidity 37    
Precipitation  
Precipitation 0.00 in - - ()
Sea Level Pressure  
Sea Level Pressure 30.09 in    
Wind  
Wind Speed 10 mph (West)    
Max Wind Speed 21 mph    
Max Gust Speed 31 mph    
Visibility 10 miles    
Events      
Averages and records for this station are not official NWS values.
T = Trace of Precipitation, MM = Missing Value Source: NWS Daily Summary

Daily Weather History Graph

Daily Weather History Graph

Search for Another Location

Airport or City:

Trip Planner

Search our weather history database for the weather conditions in past years. The results will help you decide how hot, cold, wet, or windy it might be!

Date:

Astronomy

Jan. 30, 2012 Rise Set
Actual Time 7:05 AM EST 5:01 PM EST
Civil Twilight 6:35 AM EST 5:31 PM EST
Nautical Twilight 6:02 AM EST 6:04 PM EST
Astronomical Twilight 5:29 AM EST 6:37 PM EST
Moon 10:17 AM EST (1/30) No Moon Set
Length of Visible Light 10h 55m
Length of Day
9h 55m
Waxing Crescent, 46% of the Moon is Illuminated
Jan 30
Waxing Crescent
Jan 30
First Quarter
Feb 7
Full
Feb 14
Last Quarter
Feb 21
New

Hourly Weather History & Observations

Time (EST) Temp. Windchill Dew Point Humidity Pressure Visibility Wind Dir Wind Speed Gust Speed Precip Events Conditions
12:55 AM 29.7 °F 23.7 °F 18.3 °F 63% 29.98 in 10.0 mi SSE 5.8 mph - N/A   Clear
1:55 AM 33.4 °F 26.6 °F 19.6 °F 57% 29.96 in 10.0 mi SSE 8.1 mph - N/A   Scattered Clouds
2:55 AM 33.3 °F 27.9 °F 19.2 °F 56% 29.93 in 10.0 mi SSW 5.8 mph - N/A   Mostly Cloudy
3:55 AM 33.8 °F 26.4 °F 19.8 °F 56% 29.94 in 10.0 mi SSW 9.2 mph - N/A   Overcast
4:55 AM 32.0 °F 23.0 °F 20.3 °F 62% 29.96 in 10.0 mi WSW 11.5 mph - N/A   Clear
5:11 AM 33.8 °F 22.2 °F 21.2 °F 60% 29.97 in 10.0 mi West 20.7 mph 26.5 mph N/A   Scattered Clouds
5:22 AM 33.8 °F 24.3 °F 26.6 °F 75% 29.98 in 10.0 mi West 13.8 mph 24.2 mph N/A   Mostly Cloudy
5:34 AM 32.0 °F 27.5 °F 26.6 °F 80% 29.99 in 10.0 mi West 4.6 mph - N/A   Overcast
5:55 AM 31.1 °F 24.5 °F 26.2 °F 82% 29.99 in 10.0 mi SSW 6.9 mph - 0.00 in   Overcast
5:59 AM 32.0 °F 25.6 °F 26.6 °F 80% 30.00 in 10.0 mi SSW 6.9 mph - N/A   Overcast
6:01 AM 32.0 °F 25.6 °F 26.6 °F 80% 30.00 in 10.0 mi SSW 6.9 mph - N/A   Overcast
6:06 AM 32.0 °F 25.6 °F 26.6 °F 80% 30.00 in 10.0 mi SSW 6.9 mph - N/A   Overcast
6:09 AM 32.0 °F 24.2 °F 26.6 °F 80% 30.00 in 10.0 mi SW 9.2 mph - N/A   Overcast
6:10 AM 32.0 °F 24.2 °F 26.6 °F 80% 30.01 in 10.0 mi SW 9.2 mph - N/A   Overcast
6:13 AM 32.0 °F 23.6 °F 26.6 °F 80% 30.01 in 10.0 mi WSW 10.4 mph - N/A   Overcast
6:16 AM 32.0 °F 23.6 °F 26.6 °F 80% 30.01 in 10.0 mi WSW 10.4 mph - N/A   Overcast
6:29 AM 32.0 °F 21.2 °F 24.8 °F 75% 30.02 in 10.0 mi WNW 16.1 mph 25.3 mph N/A   Overcast
6:30 AM 32.0 °F 20.8 °F 24.8 °F 75% 30.02 in 10.0 mi WNW 17.3 mph 25.3 mph N/A   Overcast
6:32 AM 32.0 °F 19.8 °F 24.8 °F 75% 30.02 in 10.0 mi West 20.7 mph 26.5 mph N/A   Overcast
6:52 AM 32.0 °F 19.8 °F 23.0 °F 69% 30.04 in 10.0 mi WNW 20.7 mph 31.1 mph N/A   Scattered Clouds
6:55 AM 31.3 °F 18.9 °F 22.6 °F 70% 30.04 in 10.0 mi WNW 20.7 mph 31.1 mph 0.00 in   Scattered Clouds
7:11 AM 30.2 °F 18.5 °F 23.0 °F 75% 30.06 in 10.0 mi WNW 17.3 mph - N/A   Mostly Cloudy
7:19 AM 30.2 °F 20.8 °F 23.0 °F 75% 30.07 in 10.0 mi NW 11.5 mph 23.0 mph N/A   Mostly Cloudy
7:55 AM 31.5 °F 23.5 °F 19.9 °F 62% 30.10 in 10.0 mi NW 9.2 mph 20.7 mph N/A   Mostly Cloudy
8:55 AM 32.7 °F 25.0 °F 14.9 °F 48% 30.14 in 10.0 mi NW 9.2 mph - N/A   Clear
9:55 AM 33.8 °F 23.9 °F 10.9 °F 39% 30.16 in 10.0 mi NW 15.0 mph - N/A   Scattered Clouds
10:55 AM 35.4 °F 25.3 °F 11.5 °F 37% 30.17 in 10.0 mi WNW 17.3 mph - N/A   Clear
11:55 AM 35.1 °F 26.4 °F 11.8 °F 38% 30.18 in 10.0 mi WNW 12.7 mph - N/A   Mostly Cloudy
12:55 PM 33.4 °F 22.3 °F 12.9 °F 43% 30.19 in 10.0 mi WNW 18.4 mph 25.3 mph N/A   Scattered Clouds
1:55 PM 35.8 °F 25.4 °F 13.6 °F 40% 30.18 in 10.0 mi WNW 18.4 mph 25.3 mph N/A   Scattered Clouds
2:55 PM 33.6 °F 22.2 °F 15.1 °F 47% 30.20 in 10.0 mi West 19.6 mph - N/A   Clear
3:55 PM 32.2 °F 21.8 °F 14.7 °F 49% 30.23 in 10.0 mi West 15.0 mph - N/A   Partly Cloudy
4:55 PM 30.7 °F 21.4 °F 16.7 °F 56% 30.25 in 10.0 mi West 11.5 mph - N/A   Mostly Cloudy
5:55 PM 27.1 °F 20.7 °F 16.5 °F 64% 30.27 in 10.0 mi NW 5.8 mph - N/A   Partly Cloudy
6:55 PM 25.5 °F 19.9 °F 16.0 °F 67% 30.28 in 10.0 mi WNW 4.6 mph - N/A   Clear
7:55 PM 24.8 °F - 17.6 °F 74% 30.29 in 10.0 mi Calm Calm - N/A   Clear
8:55 PM 23.9 °F 19.5 °F 17.1 °F 75% 30.28 in 10.0 mi SW 3.5 mph - N/A   Clear
9:55 PM 23.0 °F - 18.1 °F 82% 30.28 in 10.0 mi Calm Calm - N/A   Scattered Clouds
10:55 PM 25.3 °F 21.1 °F 21.2 °F 84% 30.28 in 10.0 mi South 3.5 mph - N/A   Overcast
11:55 PM 27.3 °F - 21.0 °F 77% 30.29 in 10.0 mi Calm Calm - N/A   Overcast